Location: Dalton
(42.4737°N, 73.1662°W)
Time: 17:10:52
(UTC+00:00)

Envisat - Pass Details

Date: 24 September 2024
Orbit: 762 x 764 km, 98.3° (Epoch: 09 October)

Event Time Altitude Azimuth Distance (km) Brightness Sun altitude
Rises 08:27:27 0° 9° (N) 3,235 6.7 -25.1°
Reaches altitude 10° 08:29:47 10° 5° (N) 2,305 5.8 -24.7°
Enters shadow 08:34:38 57° 294° (WNW) 901 3.0 -23.9°
